Time,TemperatureF,DewpointF,PressureIn,WindDirection,WindDirectionDegrees,WindSpeedMPH,WindSpeedGustMPH,Humidity,HourlyPrecipIn,Conditions,Clouds,dailyrainin,SoftwareType,DateUTC
2013-03-03 00:00:00,38.9,32.3,29.65,NW,317,3.0,10.0,77,0.00,,---,0.00,VWS V14.01,2013-03-03 05:00:00,
2013-03-03 00:05:00,38.8,32.2,29.65,WNW,302,2.0,7.0,77,0.00,,---,0.00,VWS V14.01,2013-03-03 05:05:00,
2013-03-03 00:10:00,38.8,31.9,29.65,NW,316,4.0,9.0,76,0.00,,---,0.00,VWS V14.01,2013-03-03 05:10:00,
2013-03-03 00:15:00,38.8,31.9,29.65,NW,317,5.0,9.0,76,0.00,,---,0.00,VWS V14.01,2013-03-03 05:15:00,
2013-03-03 00:20:00,38.7,32.1,29.65,NNW,328,3.0,10.0,77,0.00,,---,0.00,VWS V14.01,2013-03-03 05:20:00,
2013-03-03 00:25:00,38.7,31.8,29.65,WNW,291,5.0,10.0,76,0.00,,---,0.00,VWS V14.01,2013-03-03 05:25:00,
2013-03-03 00:30:00,38.6,31.4,29.65,NNW,329,6.0,10.0,75,0.00,,---,0.00,VWS V14.01,2013-03-03 05:30:00,
2013-03-03 00:35:00,38.6,31.4,29.65,NW,304,6.0,9.0,75,0.00,,---,0.00,VWS V14.01,2013-03-03 05:35:00,
2013-03-03 00:40:00,38.5,31.3,29.65,NW,321,4.0,9.0,75,0.00,,---,0.00,VWS V14.01,2013-03-03 05:40:00,
2013-03-03 00:45:00,38.5,31.3,29.65,NW,307,0.0,10.0,75,0.00,,---,0.00,VWS V14.01,2013-03-03 05:45:00,
2013-03-03 00:50:00,38.5,31.3,29.65,NW,311,8.0,12.0,75,0.00,,---,0.00,VWS V14.01,2013-03-03 05:50:00,
2013-03-03 00:55:00,38.4,31.2,29.65,NW,323,0.0,12.0,75,0.00,,---,0.00,VWS V14.01,2013-03-03 05:55:00,
2013-03-03 01:00:00,38.4,31.2,29.65,WNW,301,6.0,12.0,75,0.00,,---,0.00,VWS V14.01,2013-03-03 06:00:00,
2013-03-03 01:05:00,38.3,31.1,29.65,NW,323,3.0,7.0,75,0.00,,---,0.00,VWS V14.01,2013-03-03 06:05:00,
2013-03-03 01:10:00,38.2,31.0,29.65,NW,315,0.0,9.0,75,0.00,,---,0.00,VWS V14.01,2013-03-03 06:10:00,
2013-03-03 01:15:00,38.2,31.0,29.65,NW,315,2.0,10.0,75,0.00,,---,0.00,VWS V14.01,2013-03-03 06:15:00,
2013-03-03 01:20:00,38.1,30.9,29.65,NW,313,4.0,10.0,75,0.00,,---,0.00,VWS V14.01,2013-03-03 06:20:00,
2013-03-03 01:25:00,38.0,30.8,29.65,NW,308,1.0,10.0,75,0.00,,---,0.00,VWS V14.01,2013-03-03 06:25:00,
2013-03-03 01:30:00,38.0,30.8,29.65,NW,319,4.0,10.0,75,0.00,,---,0.00,VWS V14.01,2013-03-03 06:30:00,
2013-03-03 01:35:00,37.9,30.4,29.64,NW,315,3.0,9.0,74,0.00,,---,0.00,VWS V14.01,2013-03-03 06:35:00,
2013-03-03 01:40:00,37.9,30.7,29.65,NW,311,2.0,9.0,75,0.00,,---,0.00,VWS V14.01,2013-03-03 06:40:00,
2013-03-03 01:45:00,37.8,30.6,29.64,NW,321,3.0,9.0,75,0.00,,---,0.00,VWS V14.01,2013-03-03 06:45:00,
2013-03-03 01:50:00,37.7,30.5,29.64,NW,316,4.0,9.0,75,0.00,,---,0.00,VWS V14.01,2013-03-03 06:50:00,
2013-03-03 01:55:00,37.7,30.8,29.64,NW,320,7.0,9.0,76,0.00,,---,0.00,VWS V14.01,2013-03-03 06:55:00,
2013-03-03 02:00:00,37.7,30.5,29.64,NW,314,4.0,9.0,75,0.00,,---,0.00,VWS V14.01,2013-03-03 07:00:00,
2013-03-03 02:05:00,37.6,30.7,29.64,NW,318,5.0,6.0,76,0.00,,---,0.00,VWS V14.01,2013-03-03 07:05:00,
2013-03-03 02:10:00,37.5,31.0,29.64,NW,309,4.0,6.0,77,0.00,,---,0.00,VWS V14.01,2013-03-03 07:10:00,
2013-03-03 02:15:00,37.5,31.0,29.64,NW,311,0.0,6.0,77,0.00,,---,0.00,VWS V14.01,2013-03-03 07:15:00,
2013-03-03 02:20:00,37.5,30.6,29.63,WNW,290,1.0,6.0,76,0.00,,---,0.00,VWS V14.01,2013-03-03 07:20:00,
2013-03-03 02:25:00,37.4,30.5,29.63,NW,320,0.0,7.0,76,0.00,,---,0.00,VWS V14.01,2013-03-03 07:25:00,
2013-03-03 02:30:00,37.4,30.5,29.63,WNW,302,0.0,7.0,76,0.00,,---,0.00,VWS V14.01,2013-03-03 07:30:00,
2013-03-03 02:35:00,37.3,30.4,29.63,NW,322,8.0,9.0,76,0.00,,---,0.00,VWS V14.01,2013-03-03 07:35:00,
2013-03-03 02:40:00,37.2,30.4,29.63,WNW,301,2.0,9.0,76,0.00,,---,0.00,VWS V14.01,2013-03-03 07:40:00,
2013-03-03 02:45:00,37.1,30.6,29.63,NW,324,2.0,9.0,77,0.00,,---,0.00,VWS V14.01,2013-03-03 07:45:00,
2013-03-03 02:50:00,37.1,30.9,29.63,NW,311,0.0,9.0,78,0.00,,---,0.00,VWS V14.01,2013-03-03 07:50:00,
2013-03-03 02:55:00,37.0,30.8,29.63,NW,324,6.0,9.0,78,0.00,,---,0.00,VWS V14.01,2013-03-03 07:55:00,
2013-03-03 03:00:00,37.0,30.8,29.62,NW,307,3.0,9.0,78,0.00,,---,0.00,VWS V14.01,2013-03-03 08:00:00,
2013-03-03 03:05:00,36.9,30.4,29.62,WNW,303,3.0,7.0,77,0.00,,---,0.00,VWS V14.01,2013-03-03 08:05:00,
2013-03-03 03:10:00,36.9,30.7,29.62,NW,326,2.0,7.0,78,0.00,,---,0.00,VWS V14.01,2013-03-03 08:10:00,
2013-03-03 03:15:00,36.9,30.7,29.62,NW,313,4.0,8.0,78,0.00,,---,0.00,VWS V14.01,2013-03-03 08:15:00,
2013-03-03 03:20:00,36.8,30.6,29.62,NNW,328,0.0,8.0,78,0.00,,---,0.00,VWS V14.01,2013-03-03 08:20:00,
2013-03-03 03:25:00,36.8,30.6,29.62,NW,322,3.0,8.0,78,0.00,,---,0.00,VWS V14.01,2013-03-03 08:25:00,
2013-03-03 03:30:00,36.7,30.5,29.63,NW,321,0.0,8.0,78,0.00,,---,0.00,VWS V14.01,2013-03-03 08:30:00,
2013-03-03 03:35:00,36.7,30.8,29.63,NNW,328,1.0,7.0,79,0.00,,---,0.00,VWS V14.01,2013-03-03 08:35:00,
2013-03-03 03:40:00,36.6,30.7,29.63,NW,322,6.0,7.0,79,0.00,,---,0.00,VWS V14.01,2013-03-03 08:40:00,
2013-03-03 03:45:00,36.6,30.7,29.62,NNW,327,0.0,7.0,79,0.00,,---,0.00,VWS V14.01,2013-03-03 08:45:00,
2013-03-03 03:50:00,36.6,30.7,29.63,NW,317,5.0,7.0,79,0.00,,---,0.00,VWS V14.01,2013-03-03 08:50:00,
2013-03-03 03:55:00,36.6,30.7,29.62,NW,313,0.0,7.0,79,0.00,,---,0.00,VWS V14.01,2013-03-03 08:55:00,
2013-03-03 04:00:00,36.6,30.7,29.62,NW,307,4.0,7.0,79,0.00,,---,0.00,VWS V14.01,2013-03-03 09:00:00,
2013-03-03 04:05:00,36.6,30.7,29.62,NW,312,5.0,7.0,79,0.00,,---,0.00,VWS V14.01,2013-03-03 09:05:00,
2013-03-03 04:10:00,36.6,30.7,29.62,NW,305,6.0,7.0,79,0.00,,---,0.00,VWS V14.01,2013-03-03 09:10:00,
2013-03-03 04:15:00,36.6,30.7,29.63,NW,307,2.0,8.0,79,0.00,,---,0.00,VWS V14.01,2013-03-03 09:15:00,
2013-03-03 04:20:00,36.6,31.0,29.63,NW,311,0.0,8.0,80,0.00,,---,0.00,VWS V14.01,2013-03-03 09:20:00,
2013-03-03 04:25:00,36.5,30.9,29.63,NW,325,0.0,8.0,80,0.00,,---,0.00,VWS V14.01,2013-03-03 09:25:00,
2013-03-03 04:30:00,36.5,30.6,29.63,NW,311,2.0,8.0,79,0.00,,---,0.00,VWS V14.01,2013-03-03 09:30:00,
2013-03-03 04:35:00,36.5,30.9,29.63,WNW,302,0.0,7.0,80,0.00,,---,0.00,VWS V14.01,2013-03-03 09:35:00,
2013-03-03 04:40:00,36.4,30.8,29.63,NW,311,3.0,7.0,80,0.00,,---,0.00,VWS V14.01,2013-03-03 09:40:00,
2013-03-03 04:45:00,36.4,30.8,29.63,NW,319,6.0,8.0,80,0.00,,---,0.00,VWS V14.01,2013-03-03 09:45:00,
2013-03-03 04:49:00,36.4,30.8,29.63,NW,308,5.0,8.0,80,0.00,,---,0.00,VWS V14.01,2013-03-03 09:49:00,
2013-03-03 04:54:00,36.4,30.8,29.64,NW,319,0.0,8.0,80,0.00,,---,0.00,VWS V14.01,2013-03-03 09:54:00,
2013-03-03 04:59:00,36.3,30.7,29.63,NW,316,5.0,9.0,80,0.00,,---,0.00,VWS V14.01,2013-03-03 09:59:00,
2013-03-03 05:04:00,36.3,30.7,29.63,WNW,303,2.0,8.0,80,0.00,,---,0.00,VWS V14.01,2013-03-03 10:04:00,
2013-03-03 05:09:00,36.2,30.3,29.63,NW,308,0.0,8.0,79,0.00,,---,0.00,VWS V14.01,2013-03-03 10:09:00,
2013-03-03 05:14:00,36.2,30.6,29.63,NW,307,0.0,8.0,80,0.00,,---,0.00,VWS V14.01,2013-03-03 10:14:00,
2013-03-03 05:20:00,36.2,30.6,29.63,WNW,294,0.0,8.0,80,0.00,,---,0.00,VWS V14.01,2013-03-03 10:20:00,
2013-03-03 05:24:00,36.1,30.8,29.63,WNW,303,2.0,8.0,81,0.00,,---,0.00,VWS V14.01,2013-03-03 10:24:00,
2013-03-03 05:29:00,36.1,31.1,29.63,West,276,1.0,8.0,82,0.00,,---,0.00,VWS V14.01,2013-03-03 10:29:00,
2013-03-03 05:34:00,36.1,31.1,29.64,WNW,297,0.0,6.0,82,0.00,,---,0.00,VWS V14.01,2013-03-03 10:34:00,
2013-03-03 05:39:00,36.0,31.0,29.64,WNW,299,1.0,6.0,82,0.00,,---,0.00,VWS V14.01,2013-03-03 10:39:00,
2013-03-03 05:44:00,36.0,31.4,29.64,WNW,300,0.0,6.0,83,0.00,,---,0.00,VWS V14.01,2013-03-03 10:44:00,
2013-03-03 05:49:00,35.9,31.2,29.64,NW,305,1.0,6.0,83,0.00,,---,0.00,VWS V14.01,2013-03-03 10:49:00,
2013-03-03 05:54:00,35.9,31.2,29.64,NW,307,3.0,7.0,83,0.00,,---,0.00,VWS V14.01,2013-03-03 10:54:00,
2013-03-03 05:59:00,35.8,31.1,29.64,NW,305,0.0,7.0,83,0.00,,---,0.00,VWS V14.01,2013-03-03 10:59:00,
2013-03-03 06:04:00,35.7,31.0,29.64,WNW,297,0.0,6.0,83,0.00,,---,0.00,VWS V14.01,2013-03-03 11:04:00,
2013-03-03 06:09:00,35.7,30.8,29.64,NW,306,0.0,8.0,82,0.00,,---,0.00,VWS V14.01,2013-03-03 11:09:00,
2013-03-03 06:14:00,35.6,30.7,29.64,WNW,298,0.0,8.0,82,0.00,,---,0.00,VWS V14.01,2013-03-03 11:14:00,
2013-03-03 06:19:00,35.6,30.7,29.64,WNW,301,0.0,8.0,82,0.00,,---,0.00,VWS V14.01,2013-03-03 11:19:00,
2013-03-03 06:24:00,35.5,30.6,29.64,NW,317,0.0,8.0,82,0.00,,---,0.00,VWS V14.01,2013-03-03 11:24:00,
2013-03-03 06:29:00,35.5,30.6,29.64,NW,305,0.0,8.0,82,0.00,,---,0.00,VWS V14.01,2013-03-03 11:29:00,
2013-03-03 06:34:00,35.5,30.6,29.65,WNW,299,2.0,6.0,82,0.00,,---,0.00,VWS V14.01,2013-03-03 11:34:00,
2013-03-03 06:39:00,35.4,30.5,29.65,NW,305,5.0,8.0,82,0.00,,---,0.00,VWS V14.01,2013-03-03 11:39:00,
2013-03-03 06:44:00,35.5,30.6,29.65,WNW,295,0.0,8.0,82,0.00,,---,0.00,VWS V14.01,2013-03-03 11:44:00,
2013-03-03 06:49:00,35.4,30.5,29.65,WNW,299,0.0,8.0,82,0.00,,---,0.00,VWS V14.01,2013-03-03 11:49:00,
2013-03-03 06:54:00,35.4,30.5,29.65,WNW,299,1.0,8.0,82,0.00,,---,0.00,VWS V14.01,2013-03-03 11:54:00,
2013-03-03 06:59:00,35.4,30.2,29.65,NW,316,0.0,8.0,81,0.00,,---,0.00,VWS V14.01,2013-03-03 11:59:00,
2013-03-03 07:04:00,35.4,29.9,29.65,NW,310,0.0,7.0,80,0.00,,---,0.00,VWS V14.01,2013-03-03 12:04:00,
2013-03-03 07:09:00,35.4,30.2,29.65,NW,315,0.0,7.0,81,0.00,,---,0.00,VWS V14.01,2013-03-03 12:09:00,
2013-03-03 07:14:00,35.5,30.3,29.65,NW,311,5.0,7.0,81,0.00,,---,0.00,VWS V14.01,2013-03-03 12:14:00,
2013-03-03 07:19:00,35.5,30.0,29.65,WNW,301,1.0,7.0,80,0.00,,---,0.00,VWS V14.01,2013-03-03 12:19:00,
2013-03-03 07:24:00,35.6,30.4,29.65,NW,309,2.0,7.0,81,0.00,,---,0.00,VWS V14.01,2013-03-03 12:24:00,
2013-03-03 07:29:00,35.6,30.0,29.65,NW,326,2.0,7.0,80,0.00,,---,0.00,VWS V14.01,2013-03-03 12:29:00,
2013-03-03 07:34:00,35.7,30.1,29.65,NW,309,0.0,7.0,80,0.00,,---,0.00,VWS V14.01,2013-03-03 12:34:00,
2013-03-03 07:39:00,35.7,30.1,29.65,WNW,294,0.0,7.0,80,0.00,,---,0.00,VWS V14.01,2013-03-03 12:39:00,
2013-03-03 07:44:00,35.8,30.2,29.65,NW,307,5.0,7.0,80,0.00,,---,0.00,VWS V14.01,2013-03-03 12:44:00,
2013-03-03 07:49:00,35.8,29.9,29.65,NW,314,3.0,11.0,79,0.00,,---,0.00,VWS V14.01,2013-03-03 12:49:00,
2013-03-03 07:54:00,35.8,29.9,29.65,WNW,302,5.0,11.0,79,0.00,,---,0.00,VWS V14.01,2013-03-03 12:54:00,
2013-03-03 07:59:00,35.8,29.9,29.65,NW,315,4.0,11.0,79,0.00,,---,0.00,VWS V14.01,2013-03-03 12:59:00,
2013-03-03 08:04:00,35.9,30.0,29.65,West,280,0.0,5.0,79,0.00,,---,0.00,VWS V14.01,2013-03-03 13:04:00,
2013-03-03 08:09:00,36.0,29.8,29.65,NW,308,3.0,6.0,78,0.00,,---,0.00,VWS V14.01,2013-03-03 13:09:00,
2013-03-03 08:14:00,36.1,29.9,29.65,NW,319,3.0,8.0,78,0.00,,---,0.00,VWS V14.01,2013-03-03 13:14:00,
2013-03-03 08:19:00,36.1,29.9,29.65,West,276,0.0,8.0,78,0.00,,---,0.00,VWS V14.01,2013-03-03 13:19:00,
2013-03-03 08:24:00,36.2,30.0,29.65,West,274,0.0,8.0,78,0.00,,---,0.00,VWS V14.01,2013-03-03 13:24:00,
2013-03-03 08:29:00,36.3,30.1,29.65,WNW,303,0.0,8.0,78,0.00,,---,0.00,VWS V14.01,2013-03-03 13:29:00,
2013-03-03 08:34:00,36.4,29.9,29.65,WNW,288,0.0,5.0,77,0.00,,---,0.00,VWS V14.01,2013-03-03 13:34:00,
2013-03-03 08:39:00,36.5,30.3,29.65,WNW,294,0.0,7.0,78,0.00,,---,0.00,VWS V14.01,2013-03-03 13:39:00,
2013-03-03 08:44:00,36.6,30.1,29.64,WNW,303,5.0,7.0,77,0.00,,---,0.00,VWS V14.01,2013-03-03 13:44:00,
2013-03-03 08:49:00,36.6,30.1,29.64,NW,308,4.0,7.0,77,0.00,,---,0.00,VWS V14.01,2013-03-03 13:49:00,
2013-03-03 08:54:00,36.7,30.5,29.65,WNW,299,5.0,7.0,78,0.00,,---,0.00,VWS V14.01,2013-03-03 13:54:00,
2013-03-03 08:59:00,36.9,30.4,29.64,WNW,288,0.0,7.0,77,0.00,,---,0.00,VWS V14.01,2013-03-03 13:59:00,
2013-03-03 09:04:00,37.1,30.2,29.64,WNW,288,0.0,4.0,76,0.00,,---,0.00,VWS V14.01,2013-03-03 14:04:00,
2013-03-03 09:09:00,37.2,30.4,29.65,West,272,0.0,5.0,76,0.00,,---,0.00,VWS V14.01,2013-03-03 14:09:00,
2013-03-03 09:14:00,37.3,30.4,29.65,WSW,249,1.0,5.0,76,0.00,,---,0.00,VWS V14.01,2013-03-03 14:14:00,
2013-03-03 09:19:00,37.4,30.5,29.64,WNW,286,0.0,5.0,76,0.00,,---,0.00,VWS V14.01,2013-03-03 14:19:00,
2013-03-03 09:24:00,37.6,30.7,29.64,WNW,303,4.0,5.0,76,0.00,,---,0.00,VWS V14.01,2013-03-03 14:24:00,
2013-03-03 09:29:00,37.7,30.5,29.64,WNW,301,5.0,7.0,75,0.00,,---,0.00,VWS V14.01,2013-03-03 14:29:00,
2013-03-03 09:34:00,37.7,30.5,29.64,WSW,252,0.0,5.0,75,0.00,,---,0.00,VWS V14.01,2013-03-03 14:34:00,
2013-03-03 09:39:00,37.9,31.0,29.64,WNW,303,5.0,6.0,76,0.00,,---,0.00,VWS V14.01,2013-03-03 14:39:00,
2013-03-03 09:44:00,38.0,30.8,29.64,WNW,302,0.0,7.0,75,0.00,,---,0.00,VWS V14.01,2013-03-03 14:44:00,
2013-03-03 09:49:00,38.1,30.6,29.64,NW,323,0.0,7.0,74,0.00,,---,0.00,VWS V14.01,2013-03-03 14:49:00,
2013-03-03 09:54:00,38.2,31.0,29.63,WNW,299,1.0,8.0,75,0.00,,---,0.00,VWS V14.01,2013-03-03 14:54:00,
2013-03-03 09:59:00,38.4,30.9,29.63,WNW,282,3.0,8.0,74,0.00,,---,0.00,VWS V14.01,2013-03-03 14:59:00,
2013-03-03 10:04:00,38.6,31.0,29.63,WNW,302,0.0,5.0,74,0.00,,---,0.00,VWS V14.01,2013-03-03 15:04:00,
2013-03-03 10:09:00,38.7,30.8,29.63,NW,312,2.0,7.0,73,0.00,,---,0.00,VWS V14.01,2013-03-03 15:09:00,
2013-03-03 10:14:00,38.8,30.9,29.63,WNW,295,4.0,7.0,73,0.00,,---,0.00,VWS V14.01,2013-03-03 15:14:00,
2013-03-03 10:19:00,38.7,30.8,29.63,WNW,295,0.0,7.0,73,0.00,,---,0.00,VWS V14.01,2013-03-03 15:19:00,
2013-03-03 10:24:00,38.8,31.2,29.63,WNW,292,0.0,7.0,74,0.00,,---,0.00,VWS V14.01,2013-03-03 15:24:00,
2013-03-03 10:29:00,39.0,30.8,29.63,WNW,290,0.0,7.0,72,0.00,,---,0.00,VWS V14.01,2013-03-03 15:29:00,
2013-03-03 10:34:00,39.2,31.3,29.63,NW,306,0.0,4.0,73,0.00,,---,0.00,VWS V14.01,2013-03-03 15:34:00,
2013-03-03 10:39:00,39.3,31.0,29.63,West,274,0.0,6.0,72,0.00,,---,0.00,VWS V14.01,2013-03-03 15:39:00,
2013-03-03 10:44:00,39.4,31.5,29.63,West,280,4.0,6.0,73,0.00,,---,0.00,VWS V14.01,2013-03-03 15:44:00,
2013-03-03 10:49:00,39.6,31.7,29.63,WNW,291,0.0,6.0,73,0.00,,---,0.00,VWS V14.01,2013-03-03 15:49:00,
2013-03-03 10:54:00,39.7,31.4,29.62,West,263,1.0,6.0,72,0.00,,---,0.00,VWS V14.01,2013-03-03 15:54:00,
2013-03-03 10:59:00,39.8,31.5,29.62,WSW,249,2.0,6.0,72,0.00,,---,0.00,VWS V14.01,2013-03-03 15:59:00,
2013-03-03 11:04:00,39.8,31.2,29.63,WSW,242,0.0,5.0,71,0.00,,---,0.00,VWS V14.01,2013-03-03 16:04:00,
2013-03-03 11:09:00,39.9,31.6,29.63,SW,232,0.0,7.0,72,0.00,,---,0.00,VWS V14.01,2013-03-03 16:09:00,
2013-03-03 11:14:00,40.1,31.8,29.63,WSW,244,3.0,7.0,72,0.00,,---,0.00,VWS V14.01,2013-03-03 16:14:00,
2013-03-03 11:19:00,40.2,31.6,29.62,WSW,248,0.0,7.0,71,0.00,,---,0.00,VWS V14.01,2013-03-03 16:19:00,
2013-03-03 11:24:00,40.5,31.9,29.62,WSW,253,2.0,7.0,71,0.00,,---,0.00,VWS V14.01,2013-03-03 16:24:00,
2013-03-03 11:29:00,40.6,31.6,29.62,West,269,0.0,7.0,70,0.00,,---,0.00,VWS V14.01,2013-03-03 16:29:00,
2013-03-03 11:34:00,40.5,31.5,29.62,West,263,0.0,3.0,70,0.00,,---,0.00,VWS V14.01,2013-03-03 16:34:00,
2013-03-03 11:39:00,40.6,31.6,29.62,SW,234,0.0,5.0,70,0.00,,---,0.00,VWS V14.01,2013-03-03 16:39:00,
2013-03-03 11:44:00,40.7,31.3,29.62,WSW,238,0.0,6.0,69,0.00,,---,0.00,VWS V14.01,2013-03-03 16:44:00,
2013-03-03 11:49:00,40.6,31.2,29.62,SW,233,0.0,9.0,69,0.00,,---,0.00,VWS V14.01,2013-03-03 16:49:00,
2013-03-03 11:54:00,40.5,31.5,29.62,South,187,3.0,9.0,70,0.00,,---,0.00,VWS V14.01,2013-03-03 16:54:00,
2013-03-03 11:59:00,40.3,31.7,29.61,SSW,192,2.0,9.0,71,0.00,,---,0.00,VWS V14.01,2013-03-03 16:59:00,
2013-03-03 12:04:00,39.9,30.9,29.62,SSW,207,8.0,9.0,70,0.00,,---,0.00,VWS V14.01,2013-03-03 17:04:00,
2013-03-03 12:09:00,39.5,30.5,29.61,SSW,211,7.0,9.0,70,0.00,,---,0.00,VWS V14.01,2013-03-03 17:09:00,
2013-03-03 12:14:00,39.3,30.7,29.61,SSW,196,4.0,9.0,71,0.00,,---,0.00,VWS V14.01,2013-03-03 17:14:00,
2013-03-03 12:19:00,39.3,31.4,29.61,South,169,7.0,9.0,73,0.00,,---,0.00,VWS V14.01,2013-03-03 17:19:00,
2013-03-03 12:24:00,39.2,31.6,29.61,SE,145,4.0,9.0,74,0.00,,---,0.00,VWS V14.01,2013-03-03 17:24:00,
2013-03-03 12:29:00,39.2,32.0,29.60,SSE,158,5.0,9.0,75,0.00,,---,0.00,VWS V14.01,2013-03-03 17:29:00,
2013-03-03 12:34:00,39.4,32.8,29.60,South,186,1.0,7.0,77,0.00,,---,0.00,VWS V14.01,2013-03-03 17:34:00,
2013-03-03 12:39:00,39.6,32.7,29.60,SW,215,4.0,9.0,76,0.00,,---,0.00,VWS V14.01,2013-03-03 17:39:00,
2013-03-03 12:44:00,39.6,32.3,29.60,SSE,168,7.0,10.0,75,0.00,,---,0.00,VWS V14.01,2013-03-03 17:44:00,
2013-03-03 12:49:00,39.5,32.6,29.60,SSW,199,9.0,11.0,76,0.00,,---,0.00,VWS V14.01,2013-03-03 17:49:00,
2013-03-03 12:54:00,39.4,32.8,29.60,SSW,196,9.0,11.0,77,0.00,,---,0.00,VWS V14.01,2013-03-03 17:54:00,
2013-03-03 12:59:00,39.5,32.9,29.59,South,186,7.0,11.0,77,0.00,,---,0.00,VWS V14.01,2013-03-03 17:59:00,
2013-03-03 13:04:00,39.6,33.0,29.59,South,191,8.0,8.0,77,0.00,,---,0.00,VWS V14.01,2013-03-03 18:04:00,
2013-03-03 13:09:00,39.7,33.1,29.59,SSW,201,8.0,10.0,77,0.00,,---,0.00,VWS V14.01,2013-03-03 18:09:00,
2013-03-03 13:14:00,39.8,33.2,29.59,SSW,197,7.0,10.0,77,0.00,,---,0.00,VWS V14.01,2013-03-03 18:14:00,
2013-03-03 13:19:00,39.6,33.3,29.59,SW,224,7.0,13.0,78,0.00,,---,0.00,VWS V14.01,2013-03-03 18:19:00,
2013-03-03 13:24:00,39.7,33.4,29.58,SSW,203,10.0,13.0,78,0.00,,---,0.00,VWS V14.01,2013-03-03 18:24:00,
2013-03-03 13:29:00,39.6,33.3,29.59,SSW,203,8.0,13.0,78,0.00,,---,0.00,VWS V14.01,2013-03-03 18:29:00,
2013-03-03 13:34:00,39.5,33.2,29.59,South,178,3.0,12.0,78,0.00,,---,0.00,VWS V14.01,2013-03-03 18:34:00,
2013-03-03 13:39:00,39.6,33.0,29.59,SW,230,9.0,13.0,77,0.00,,---,0.00,VWS V14.01,2013-03-03 18:39:00,
2013-03-03 13:44:00,39.7,33.1,29.58,SSW,195,8.0,13.0,77,0.00,,---,0.00,VWS V14.01,2013-03-03 18:44:00,
2013-03-03 13:49:00,39.5,32.9,29.58,SSW,205,7.0,13.0,77,0.00,,---,0.00,VWS V14.01,2013-03-03 18:49:00,
2013-03-03 13:54:00,39.3,33.0,29.58,South,183,6.0,13.0,78,0.00,,---,0.00,VWS V14.01,2013-03-03 18:54:00,
2013-03-03 13:59:00,39.2,32.9,29.58,SSW,209,8.0,13.0,78,0.00,,---,0.00,VWS V14.01,2013-03-03 18:59:00,
2013-03-03 14:04:00,39.0,33.0,29.58,SSW,207,7.0,12.0,79,0.00,,---,0.00,VWS V14.01,2013-03-03 19:04:00,
2013-03-03 14:09:00,38.9,32.6,29.58,SSW,209,9.0,15.0,78,0.00,,---,0.00,VWS V14.01,2013-03-03 19:09:00,
2013-03-03 14:14:00,38.6,32.7,29.58,SSE,166,11.0,15.0,79,0.00,,---,0.00,VWS V14.01,2013-03-03 19:14:00,
2013-03-03 14:19:00,38.3,32.4,29.59,South,176,16.0,16.0,79,0.00,,---,0.00,VWS V14.01,2013-03-03 19:19:00,
2013-03-03 14:24:00,38.0,32.1,29.58,SSW,208,15.0,18.0,79,0.00,,---,0.00,VWS V14.01,2013-03-03 19:24:00,
2013-03-03 14:29:00,37.8,31.9,29.58,SSW,203,14.0,18.0,79,0.00,,---,0.00,VWS V14.01,2013-03-03 19:29:00,
2013-03-03 14:34:00,37.7,32.1,29.58,SSW,207,16.0,16.0,80,0.00,,---,0.00,VWS V14.01,2013-03-03 19:34:00,
2013-03-03 14:39:00,37.6,31.7,29.58,SSW,195,13.0,17.0,79,0.00,,---,0.00,VWS V14.01,2013-03-03 19:39:00,
2013-03-03 14:44:00,37.6,32.0,29.58,SSW,199,16.0,17.0,80,0.00,,---,0.00,VWS V14.01,2013-03-03 19:44:00,
2013-03-03 14:49:00,37.5,31.9,29.59,South,174,13.0,17.0,80,0.00,,---,0.00,VWS V14.01,2013-03-03 19:49:00,
2013-03-03 14:54:00,37.4,31.8,29.58,SSW,206,13.0,17.0,80,0.00,,---,0.00,VWS V14.01,2013-03-03 19:54:00,
2013-03-03 14:59:00,37.4,32.1,29.58,SSW,206,11.0,18.0,81,0.00,,---,0.00,VWS V14.01,2013-03-03 19:59:00,
2013-03-03 15:04:00,37.3,32.0,29.58,SSW,212,14.0,17.0,81,0.00,,---,0.00,VWS V14.01,2013-03-03 20:04:00,
2013-03-03 15:09:00,37.3,32.3,29.58,SSW,206,11.0,17.0,82,0.00,,---,0.00,VWS V14.01,2013-03-03 20:09:00,
2013-03-03 15:14:00,37.3,32.3,29.58,East,94,11.0,17.0,82,0.00,,---,0.00,VWS V14.01,2013-03-03 20:14:00,
2013-03-03 15:19:00,37.2,32.2,29.58,SSW,199,13.0,17.0,82,0.00,,---,0.00,VWS V14.01,2013-03-03 20:19:00,
2013-03-03 15:24:00,37.1,32.1,29.58,SSW,207,13.0,17.0,82,0.00,,---,0.00,VWS V14.01,2013-03-03 20:24:00,
2013-03-03 15:29:00,37.1,32.1,29.58,South,184,10.0,17.0,82,0.00,,---,0.00,VWS V14.01,2013-03-03 20:29:00,
2013-03-03 15:34:00,37.2,32.2,29.58,SSW,194,13.0,17.0,82,0.00,,---,0.00,VWS V14.01,2013-03-03 20:34:00,
2013-03-03 15:39:00,37.3,32.6,29.58,SSW,209,5.0,17.0,83,0.00,,---,0.00,VWS V14.01,2013-03-03 20:39:00,
2013-03-03 15:44:00,37.3,32.6,29.58,WSW,240,7.0,17.0,83,0.00,,---,0.00,VWS V14.01,2013-03-03 20:44:00,
2013-03-03 15:49:00,37.3,32.6,29.58,South,177,7.0,17.0,83,0.00,,---,0.00,VWS V14.01,2013-03-03 20:49:00,
2013-03-03 15:54:00,37.3,32.9,29.58,SW,214,3.0,17.0,84,0.00,,---,0.00,VWS V14.01,2013-03-03 20:54:00,
2013-03-03 15:59:00,37.4,33.0,29.58,SSW,209,14.0,17.0,84,0.00,,---,0.00,VWS V14.01,2013-03-03 20:59:00,
2013-03-03 16:04:00,37.4,33.0,29.58,SW,219,7.0,15.0,84,0.00,,---,0.00,VWS V14.01,2013-03-03 21:04:00,
2013-03-03 16:09:00,37.5,33.1,29.58,SSW,194,6.0,15.0,84,0.00,,---,0.00,VWS V14.01,2013-03-03 21:09:00,
2013-03-03 16:14:00,37.5,33.1,29.58,South,191,5.0,15.0,84,0.00,,---,0.00,VWS V14.01,2013-03-03 21:14:00,
2013-03-03 16:19:00,37.5,33.1,29.58,SSW,203,7.0,15.0,84,0.00,,---,0.00,VWS V14.01,2013-03-03 21:19:00,
2013-03-03 16:24:00,37.6,33.2,29.58,SSW,209,7.0,15.0,84,0.00,,---,0.00,VWS V14.01,2013-03-03 21:24:00,
2013-03-03 16:29:00,37.7,33.0,29.59,SSW,192,11.0,15.0,83,0.00,,---,0.00,VWS V14.01,2013-03-03 21:29:00,
2013-03-03 16:34:00,37.7,33.0,29.58,SSW,209,10.0,11.0,83,0.00,,---,0.00,VWS V14.01,2013-03-03 21:34:00,
2013-03-03 16:39:00,37.7,33.0,29.58,South,186,3.0,13.0,83,0.00,,---,0.00,VWS V14.01,2013-03-03 21:39:00,
2013-03-03 16:44:00,37.8,33.1,29.58,SSW,192,6.0,13.0,83,0.00,,---,0.00,VWS V14.01,2013-03-03 21:44:00,
2013-03-03 16:49:00,37.8,32.8,29.58,SSW,207,8.0,13.0,82,0.00,,---,0.00,VWS V14.01,2013-03-03 21:49:00,
2013-03-03 16:54:00,37.8,33.1,29.58,SW,231,5.0,13.0,83,0.00,,---,0.00,VWS V14.01,2013-03-03 21:54:00,
2013-03-03 16:59:00,37.9,33.5,29.58,SW,235,6.0,13.0,84,0.00,,---,0.00,VWS V14.01,2013-03-03 21:59:00,
2013-03-03 17:04:00,37.9,33.5,29.58,SW,219,5.0,10.0,84,0.00,,---,0.00,VWS V14.01,2013-03-03 22:04:00,
2013-03-03 17:09:00,37.9,33.5,29.58,SW,223,7.0,10.0,84,0.00,,---,0.00,VWS V14.01,2013-03-03 22:09:00,
2013-03-03 17:14:00,37.9,33.5,29.58,SW,217,2.0,11.0,84,0.00,,---,0.00,VWS V14.01,2013-03-03 22:14:00,
2013-03-03 17:19:00,37.9,33.5,29.58,South,190,0.0,11.0,84,0.00,,---,0.00,VWS V14.01,2013-03-03 22:19:00,
2013-03-03 17:24:00,37.9,33.5,29.58,SW,217,10.0,11.0,84,0.00,,---,0.00,VWS V14.01,2013-03-03 22:24:00,
2013-03-03 17:29:00,37.9,33.5,29.58,SSW,197,1.0,11.0,84,0.00,,---,0.00,VWS V14.01,2013-03-03 22:29:00,
2013-03-03 17:34:00,37.9,33.8,29.59,SSW,213,5.0,7.0,85,0.00,,---,0.00,VWS V14.01,2013-03-03 22:34:00,
2013-03-03 17:39:00,37.9,33.8,29.59,SW,216,7.0,7.0,85,0.00,,---,0.00,VWS V14.01,2013-03-03 22:39:00,
2013-03-03 17:44:00,37.9,33.8,29.59,SW,228,6.0,7.0,85,0.00,,---,0.00,VWS V14.01,2013-03-03 22:44:00,
2013-03-03 17:49:00,37.8,33.7,29.58,SW,220,5.0,7.0,85,0.00,,---,0.00,VWS V14.01,2013-03-03 22:49:00,
2013-03-03 17:54:00,37.9,33.8,29.59,SW,226,2.0,7.0,85,0.00,,---,0.00,VWS V14.01,2013-03-03 22:54:00,
2013-03-03 17:59:00,37.9,33.5,29.59,SW,223,3.0,7.0,84,0.00,,---,0.00,VWS V14.01,2013-03-03 22:59:00,
2013-03-03 18:04:00,37.9,33.5,29.59,SW,224,3.0,5.0,84,0.00,,---,0.00,VWS V14.01,2013-03-03 23:04:00,
2013-03-03 18:09:00,37.9,33.5,29.59,SW,224,0.0,6.0,84,0.00,,---,0.00,VWS V14.01,2013-03-03 23:09:00,
2013-03-03 18:14:00,37.9,33.5,29.59,SW,225,2.0,6.0,84,0.00,,---,0.00,VWS V14.01,2013-03-03 23:14:00,
2013-03-03 18:19:00,37.9,33.5,29.59,SW,225,0.0,6.0,84,0.00,,---,0.00,VWS V14.01,2013-03-03 23:19:00,
2013-03-03 18:24:00,37.9,33.5,29.60,SW,225,2.0,6.0,84,0.00,,---,0.00,VWS V14.01,2013-03-03 23:24:00,
2013-03-03 18:29:00,37.9,33.5,29.59,SW,225,0.0,6.0,84,0.00,,---,0.00,VWS V14.01,2013-03-03 23:29:00,
2013-03-03 18:34:00,37.9,33.5,29.59,SW,225,0.0,0.0,84,0.00,,---,0.00,VWS V14.01,2013-03-03 23:34:00,
2013-03-03 18:39:00,37.9,33.5,29.59,SW,225,0.0,0.0,84,0.00,,---,0.00,VWS V14.01,2013-03-03 23:39:00,
2013-03-03 18:44:00,37.9,33.5,29.60,SW,225,0.0,0.0,84,0.00,,---,0.00,VWS V14.01,2013-03-03 23:44:00,
2013-03-03 18:49:00,37.9,33.8,29.59,SW,225,0.0,0.0,85,0.00,,---,0.00,VWS V14.01,2013-03-03 23:49:00,
2013-03-03 18:54:00,37.9,33.8,29.59,SW,225,0.0,2.0,85,0.00,,---,0.00,VWS V14.01,2013-03-03 23:54:00,
2013-03-03 18:59:00,37.9,33.8,29.59,SW,225,0.0,2.0,85,0.00,,---,0.00,VWS V14.01,2013-03-03 23:59:00,
2013-03-03 19:04:00,37.9,33.5,29.59,SW,225,0.0,1.0,84,0.00,,---,0.00,VWS V14.01,2013-03-04 00:04:00,
2013-03-03 19:09:00,37.9,33.5,29.60,SW,226,0.0,1.0,84,0.00,,---,0.00,VWS V14.01,2013-03-04 00:09:00,
2013-03-03 19:14:00,38.0,33.6,29.60,SW,226,0.0,1.0,84,0.00,,---,0.00,VWS V14.01,2013-03-04 00:14:00,
2013-03-03 19:19:00,38.0,33.6,29.60,SW,226,0.0,1.0,84,0.00,,---,0.00,VWS V14.01,2013-03-04 00:19:00,
2013-03-03 19:24:00,38.0,33.6,29.60,SW,227,0.0,2.0,84,0.00,,---,0.00,VWS V14.01,2013-03-04 00:24:00,
2013-03-03 19:29:00,38.0,33.6,29.60,WSW,255,0.0,2.0,84,0.00,,---,0.00,VWS V14.01,2013-03-04 00:29:00,
2013-03-03 19:34:00,38.0,33.6,29.60,NW,309,0.0,7.0,84,0.00,,---,0.00,VWS V14.01,2013-03-04 00:34:00,
2013-03-03 19:39:00,38.4,33.7,29.60,WNW,290,6.0,9.0,83,0.00,,---,0.00,VWS V14.01,2013-03-04 00:39:00,
2013-03-03 19:44:00,38.7,34.0,29.60,NW,321,0.0,9.0,83,0.00,,---,0.00,VWS V14.01,2013-03-04 00:44:00,
2013-03-03 19:49:00,38.8,34.1,29.61,NW,311,0.0,10.0,83,0.00,,---,0.00,VWS V14.01,2013-03-04 00:49:00,
2013-03-03 19:54:00,38.8,33.8,29.61,NW,306,3.0,10.0,82,0.00,,---,0.00,VWS V14.01,2013-03-04 00:54:00,
2013-03-03 19:59:00,38.8,33.5,29.60,NW,319,5.0,11.0,81,0.00,,---,0.00,VWS V14.01,2013-03-04 00:59:00,
2013-03-03 20:04:00,38.8,33.5,29.60,NW,314,4.0,11.0,81,0.00,,---,0.00,VWS V14.01,2013-03-04 01:04:00,
2013-03-03 20:09:00,38.6,33.3,29.61,NW,323,0.0,13.0,81,0.00,,---,0.00,VWS V14.01,2013-03-04 01:09:00,
2013-03-03 20:14:00,38.5,33.2,29.61,NW,311,11.0,16.0,81,0.00,,---,0.00,VWS V14.01,2013-03-04 01:14:00,
2013-03-03 20:19:00,38.3,33.3,29.61,WNW,299,7.0,16.0,82,0.00,,---,0.00,VWS V14.01,2013-03-04 01:19:00,
2013-03-03 20:24:00,38.2,33.2,29.61,NW,313,11.0,16.0,82,0.00,,---,0.00,VWS V14.01,2013-03-04 01:24:00,
2013-03-03 20:29:00,38.0,33.3,29.61,NW,311,9.0,17.0,83,0.00,,---,0.00,VWS V14.01,2013-03-04 01:29:00,
2013-03-03 20:34:00,37.9,33.2,29.62,NW,306,10.0,14.0,83,0.00,,---,0.00,VWS V14.01,2013-03-04 01:34:00,
2013-03-03 20:39:00,37.7,33.0,29.61,NW,304,1.0,15.0,83,0.00,,---,0.00,VWS V14.01,2013-03-04 01:39:00,
2013-03-03 20:44:00,37.6,33.2,29.62,NW,309,7.0,15.0,84,0.00,,---,0.00,VWS V14.01,2013-03-04 01:44:00,
2013-03-03 20:49:00,37.5,33.1,29.62,NW,308,5.0,15.0,84,0.00,,---,0.00,VWS V14.01,2013-03-04 01:49:00,
2013-03-03 20:54:00,37.4,33.0,29.62,NW,311,0.0,15.0,84,0.00,,---,0.00,VWS V14.01,2013-03-04 01:54:00,
2013-03-03 20:59:00,37.3,32.9,29.61,WNW,284,1.0,15.0,84,0.00,,---,0.00,VWS V14.01,2013-03-04 01:59:00,
2013-03-03 21:04:00,37.2,32.8,29.61,West,267,2.0,13.0,84,0.00,,---,0.00,VWS V14.01,2013-03-04 02:04:00,
2013-03-03 21:09:00,37.1,32.7,29.61,NW,309,0.0,13.0,84,0.00,,---,0.00,VWS V14.01,2013-03-04 02:09:00,
2013-03-03 21:14:00,37.1,33.0,29.61,WNW,299,7.0,13.0,85,0.00,,---,0.00,VWS V14.01,2013-03-04 02:14:00,
2013-03-03 21:19:00,36.9,32.8,29.61,NW,307,6.0,13.0,85,0.00,,---,0.00,VWS V14.01,2013-03-04 02:19:00,
2013-03-03 21:24:00,36.8,32.7,29.61,NNW,340,9.0,13.0,85,0.00,,---,0.00,VWS V14.01,2013-03-04 02:24:00,
2013-03-03 21:29:00,36.6,32.5,29.61,WNW,294,3.0,13.0,85,0.00,,---,0.00,VWS V14.01,2013-03-04 02:29:00,
2013-03-03 21:34:00,36.5,32.4,29.61,NW,308,7.0,13.0,85,0.00,,---,0.00,VWS V14.01,2013-03-04 02:34:00,
2013-03-03 21:39:00,36.4,32.6,29.61,NW,315,7.0,16.0,86,0.00,,---,0.00,VWS V14.01,2013-03-04 02:39:00,
2013-03-03 21:44:00,36.3,32.5,29.62,NW,312,5.0,16.0,86,0.00,,---,0.00,VWS V14.01,2013-03-04 02:44:00,
2013-03-03 21:49:00,36.2,32.4,29.62,WNW,303,5.0,16.0,86,0.00,,---,0.00,VWS V14.01,2013-03-04 02:49:00,
2013-03-03 21:54:00,36.2,32.4,29.61,NW,314,4.0,16.0,86,0.00,,---,0.00,VWS V14.01,2013-03-04 02:54:00,
2013-03-03 21:59:00,36.1,32.3,29.61,WNW,291,0.0,16.0,86,0.00,,---,0.00,VWS V14.01,2013-03-04 02:59:00,
2013-03-03 22:04:00,36.0,32.2,29.61,WNW,301,4.0,10.0,86,0.00,,---,0.00,VWS V14.01,2013-03-04 03:04:00,
2013-03-03 22:09:00,35.9,33.8,29.61,WNW,302,7.0,10.0,92,0.00,,---,0.00,VWS V14.01,2013-03-04 03:09:00,
2013-03-03 22:14:00,35.9,32.4,29.61,NW,311,5.0,12.0,87,0.00,,---,0.00,VWS V14.01,2013-03-04 03:14:00,
2013-03-03 22:19:00,35.9,32.4,29.60,NW,319,10.0,12.0,87,0.00,,---,0.00,VWS V14.01,2013-03-04 03:19:00,
2013-03-03 22:24:00,35.9,32.4,29.61,NW,310,8.0,12.0,87,0.00,,---,0.00,VWS V14.01,2013-03-04 03:24:00,
2013-03-03 22:29:00,35.8,32.3,29.61,WNW,286,7.0,12.0,87,0.00,,---,0.00,VWS V14.01,2013-03-04 03:29:00,
2013-03-03 22:34:00,35.6,32.1,29.61,WSW,258,5.0,14.0,87,0.00,,---,0.00,VWS V14.01,2013-03-04 03:34:00,
2013-03-03 22:39:00,35.5,32.0,29.61,NW,312,6.0,15.0,87,0.00,,---,0.00,VWS V14.01,2013-03-04 03:39:00,
2013-03-03 22:44:00,35.4,31.9,29.61,NW,317,10.0,15.0,87,0.00,,---,0.00,VWS V14.01,2013-03-04 03:44:00,
2013-03-03 22:49:00,35.3,31.8,29.61,WNW,299,2.0,15.0,87,0.00,,---,0.00,VWS V14.01,2013-03-04 03:49:00,
2013-03-03 22:54:00,35.2,31.7,29.61,WNW,301,8.0,15.0,87,0.00,,---,0.00,VWS V14.01,2013-03-04 03:54:00,
2013-03-03 22:59:00,35.0,31.5,29.61,WNW,283,10.0,15.0,87,0.00,,---,0.00,VWS V14.01,2013-03-04 03:59:00,
2013-03-03 23:04:00,34.9,31.4,29.61,NNW,332,1.0,10.0,87,0.00,,---,0.00,VWS V14.01,2013-03-04 04:04:00,
2013-03-03 23:09:00,34.8,31.3,29.61,WNW,298,4.0,10.0,87,0.00,,---,0.00,VWS V14.01,2013-03-04 04:09:00,
2013-03-03 23:14:00,34.8,31.3,29.61,West,276,4.0,14.0,87,0.00,,---,0.00,VWS V14.01,2013-03-04 04:14:00,
2013-03-03 23:19:00,34.6,31.1,29.61,WNW,292,10.0,15.0,87,0.00,,---,0.00,VWS V14.01,2013-03-04 04:19:00,
2013-03-03 23:24:00,34.5,31.0,29.61,NW,306,9.0,15.0,87,0.00,,---,0.00,VWS V14.01,2013-03-04 04:24:00,
2013-03-03 23:29:00,34.4,30.9,29.61,WNW,303,7.0,15.0,87,0.00,,---,0.00,VWS V14.01,2013-03-04 04:29:00,
2013-03-03 23:34:00,34.4,30.9,29.61,West,272,1.0,13.0,87,0.00,,---,0.00,VWS V14.01,2013-03-04 04:34:00,
2013-03-03 23:39:00,34.4,30.9,29.61,WNW,301,7.0,13.0,87,0.00,,---,0.00,VWS V14.01,2013-03-04 04:39:00,
2013-03-03 23:44:00,34.4,30.9,29.61,WNW,301,4.0,13.0,87,0.00,,---,0.00,VWS V14.01,2013-03-04 04:44:00,
2013-03-03 23:49:00,34.4,30.9,29.61,West,261,2.0,14.0,87,0.00,,---,0.00,VWS V14.01,2013-03-04 04:49:00,
2013-03-03 23:54:00,34.4,30.9,29.61,WNW,299,3.0,15.0,87,0.00,,---,0.00,VWS V14.01,2013-03-04 04:54:00,
2013-03-03 23:59:00,34.4,30.9,29.61,NW,318,7.0,15.0,87,0.00,,---,0.00,VWS V14.01,2013-03-04 04:59:00,